Weather History for Cecil Field, FL

Change the Weather History Date:

Friday, September 20, 2013

  Actual Average (KJAX) Record (KJAX)
Temperature  
Mean Temperature 75 °F 78 °F  
Max Temperature 84 °F 86 °F 95 °F (1925)
Min Temperature 66 °F 69 °F 48 °F (1981)
Degree Days  
Heating Degree Days 0 0  
Month to date heating degree days 0  
Since 1 July heating degree days 0  
Cooling Degree Days 10 13  
Month to date cooling degree days 285  
Year to date cooling degree days 2275  
Growing Degree Days 25 (Base 50)    
Moisture  
Dew Point 68 °F    
Average Humidity 93    
Maximum Humidity 100    
Minimum Humidity 62    
Precipitation  
Precipitation 0.00 in 0.28 in 4.68 in (1994)
Month to date precipitation 5.66  
Year to date precipitation 41.02  
Snow  
Snow 0.00 in 0.00 in 0.00 in (2002)
Month to date snowfall 0.0  
Since 1 July snowfall 0.0  
Since 1 September snowfall 0.0  
Snow Depth -    
Sea Level Pressure  
Sea Level Pressure 30.03 in    
Wind  
Wind Speed 1 mph (ENE)    
Max Wind Speed 10 mph    
Max Gust Speed -    
Visibility 6 miles    
Events      
T = Trace of Precipitation, MM = Missing Value Source: NWS Daily Summary

Daily Weather History Graph

Daily Weather History Graph

Search for Another Location

Airport:

Trip Planner

Search our weather history database for the weather conditions in past years. The results will help you decide how hot, cold, wet, or windy it might be!

Date:

Astronomy

Sep. 20, 2013 Rise Set
Actual Time 7:14 AM EDT 7:26 PM EDT
Civil Twilight 6:50 AM EDT 7:50 PM EDT
Nautical Twilight 6:22 AM EDT 8:18 PM EDT
Astronomical Twilight 5:54 AM EDT 8:46 PM EDT
Moon 8:09 PM EDT (9/20) 8:19 AM EDT (9/20)
Length of Visible Light 12h 59m
Length of Day
12h 11m
Full, 98% of the Moon is Illuminated
Sep 20
Full
Sep 26
Last Quarter
Oct 4
New
Oct 11
First Quarter
Oct 18
Full

Hourly Weather History & Observations

Time (EDT) Temp. Heat Index Dew Point Humidity Pressure Visibility Wind Dir Wind Speed Gust Speed Precip Events Conditions
12:15 AM 68.0 °F - 68.0 °F 100% 30.07 in 2.0 mi Calm Calm - N/A   Clear
12:35 AM 68.0 °F - 68.0 °F 100% 30.07 in 5.0 mi Calm Calm - N/A   Clear
12:55 AM 68.0 °F - 68.0 °F 100% 30.07 in 3.0 mi Calm Calm - N/A   Clear
1:15 AM 68.0 °F - 68.0 °F 100% 30.07 in 4.0 mi Calm Calm - N/A   Clear
1:35 AM 68.0 °F - 68.0 °F 100% 30.07 in 4.0 mi Calm Calm - N/A   Clear
1:55 AM 66.2 °F - 66.2 °F 100% 30.06 in 4.0 mi Calm Calm - N/A   Clear
2:15 AM 66.2 °F - 66.2 °F 100% 30.06 in 3.0 mi Calm Calm - N/A   Clear
2:35 AM 66.2 °F - 66.2 °F 100% 30.06 in 3.0 mi Calm Calm - N/A   Clear
2:55 AM 66.2 °F - 66.2 °F 100% 30.06 in 4.0 mi Calm Calm - N/A   Clear
3:15 AM 66.2 °F - 66.2 °F 100% 30.06 in 5.0 mi Calm Calm - N/A   Clear
3:35 AM 66.2 °F - 66.2 °F 100% 30.05 in 4.0 mi Calm Calm - N/A   Clear
3:55 AM 66.2 °F - 66.2 °F 100% 30.05 in 5.0 mi Calm Calm - N/A   Clear
4:15 AM 66.2 °F - 66.2 °F 100% 30.04 in 3.0 mi Calm Calm - N/A   Clear
4:35 AM 66.2 °F - 66.2 °F 100% 30.04 in 2.5 mi Calm Calm - N/A   Clear
4:55 AM 66.2 °F - 66.2 °F 100% 30.05 in 5.0 mi Calm Calm - N/A   Clear
5:15 AM 66.2 °F - 66.2 °F 100% 30.05 in 4.0 mi Calm Calm - N/A   Clear
5:35 AM 66.2 °F - 66.2 °F 100% 30.05 in 3.0 mi Calm Calm - N/A   Clear
5:55 AM 66.2 °F - 66.2 °F 100% 30.05 in 6.0 mi Calm Calm - N/A   Clear
6:15 AM 66.2 °F - 66.2 °F 100% 30.05 in 5.0 mi Calm Calm - N/A   Scattered Clouds
6:35 AM 66.2 °F - 66.2 °F 100% 30.06 in 3.0 mi Calm Calm - N/A   Partly Cloudy
6:50 AM 66.2 °F - 66.2 °F 100% 30.06 in 7.0 mi Calm Calm - N/A   Clear
7:50 AM 66.2 °F - 66.2 °F 100% 30.07 in 10.0 mi Calm Calm - N/A   Scattered Clouds
8:50 AM 71.6 °F - 71.6 °F 100% 30.07 in 10.0 mi Calm Calm - N/A   Partly Cloudy
9:50 AM 77.0 °F - 71.6 °F 83% 30.07 in 10.0 mi NE 8.1 mph - N/A   Clear
10:50 AM 80.6 °F 84.6 °F 71.6 °F 74% 30.07 in 10.0 mi East 10.4 mph - N/A   Mostly Cloudy
11:50 AM 82.4 °F 86.3 °F 69.8 °F 66% 30.06 in 10.0 mi NNE 4.6 mph - N/A   Scattered Clouds
12:50 PM 82.4 °F 86.3 °F 69.8 °F 66% 30.04 in 10.0 mi East 10.4 mph - N/A   Scattered Clouds
1:50 PM 82.4 °F 85.4 °F 68.0 °F 62% 30.02 in 10.0 mi East 6.9 mph - N/A   Scattered Clouds
2:50 PM 84.2 °F 88.4 °F 69.8 °F 62% 30.00 in 10.0 mi ENE 6.9 mph - N/A   Mostly Cloudy
3:50 PM 82.4 °F 86.3 °F 69.8 °F 66% 29.98 in 10.0 mi ENE 8.1 mph - N/A   Mostly Cloudy
7:50 PM 75.2 °F - 69.8 °F 83% 29.95 in 10.0 mi East 6.9 mph - N/A   Clear
8:15 PM 75.2 °F - 69.8 °F 83% 29.96 in 10.0 mi Calm Calm - N/A   Clear
8:35 PM 75.2 °F - 69.8 °F 83% 29.96 in 10.0 mi ENE 3.5 mph - N/A   Clear
8:55 PM 73.4 °F - 69.8 °F 88% 29.96 in 10.0 mi Calm Calm - N/A   Clear
9:15 PM 71.6 °F - 69.8 °F 94% 29.97 in 10.0 mi Calm Calm - N/A   Clear
9:35 PM 71.6 °F - 69.8 °F 94% 29.98 in 9.0 mi Calm Calm - N/A   Clear
9:55 PM 69.8 °F - 69.8 °F 100% 29.98 in 9.0 mi Calm Calm - N/A   Clear
10:15 PM 69.8 °F - 69.8 °F 100% 29.98 in 7.0 mi Calm Calm - N/A   Clear
10:35 PM 68.0 °F - 68.0 °F 100% 29.97 in 6.0 mi Calm Calm - N/A   Clear
10:55 PM 68.0 °F - 68.0 °F 100% 29.97 in 8.0 mi Calm Calm - N/A   Clear
11:15 PM 68.0 °F - 68.0 °F 100% 29.97 in 6.0 mi Calm Calm - N/A   Clear
11:35 PM 68.0 °F - 68.0 °F 100% 29.97 in 5.0 mi Calm Calm - N/A   Clear
11:55 PM 68.0 °F - 68.0 °F 100% 29.97 in 5.0 mi Calm Calm - N/A   Clear